Other Public Products
Issued by NWS Charleston, SC

Current Version | Previous Version | Graphics & Text | Print | Product List | Glossary On
Versions: 1 2 3 4 5 6 7 8 9 10 11 12 13 14 15 16 17 18 19 20 21 22 23 24 25 26 27 28 29 30 31 32 33 34 35 36 37 38 39 40 41 42 43 44 45 46 47 48 49 50
000
FPUS82 KCHS 171112
OPUCHS

TEST...KCHS/KSAV Gateway Observations...TEST
National Weather Service Charleston SC
600 AM EST FRI NOV 17 2017

NOTE: "fair" indicates few or no clouds below 12,000 feet with no
significant weather and/or obstructions to visibility.

SCZ050-WAZ558-NCZ071-TXZ119-213-PAZ071-DCZ001-FLZ074-172-MI076-
NYZ176-178-MAZ016-IL014-TNZ027-NJZ106-GAZ044-MD014-171200-

...Gateway Observations for Charleston International...

CITY           SKY/WX    TMP DP  RH WIND       PRES   REMARKS
Chas Airport   CLEAR     48  38  68 NE13      30.14R
Seattle        CLOUDY    43  38  82 S14       29.83R
Charlotte      CLEAR     38  30  73 N5        30.18R WCI  34
Dallas DFW     CLOUDY    71  67  87 S14       29.91F
Dallas Love    CLOUDY    71  66  84 S14       29.93F
Philladelphia  PTCLDY    44  27  51 W10       30.09R
Wash National  CLEAR     43  29  57 NW8       30.17S
Baltimore      PTCLDY    36  29  75 W6        30.15R WCI  31
Miami          PTCLDY    70  67  90 N6        29.99R
Detroit        CLOUDY    35  29  78 CALM      30.28R
Newark         MOCLDY    41  24  51 NW22G33   30.03R
Laguardia      PTCLDY    43  28  55 NW26G36   30.00R
J F K          PTCLDY    40  25  55 NW21G31   30.00R WCI  30
Boston Logan   MOCLDY    40  29  64 NW21G31   29.78R WCI  30
Ft. Lauderdale PTCLDY    68  68 100 N7        29.98R
Chicago O`Hare CLOUDY    36  30  79 S13       30.14F WCI  27
Chicago Midway CLOUDY    37  31  78 S13       30.16F WCI  29
Houston Bush   MOCLDY    69  68  96 SE5       30.02S
Houston Hobby  MOCLDY    67  67 100 CALM      30.02R
Nashville      CLOUDY    35  32  88 CALM      30.20R FOG
Atlanta        PTCLDY    43  37  79 N3        30.13S

$$

GAZ044-118-TXZ119-213-NCZ071-DCZ001-MDZ014-506-PAZ021-071-NJZ106-
NYZ176-178-MAZ106-OHZ011-021-055-MIZ076-KYZ091-ILZ014-INZ047-
MNZ060-ONZ431-171200-

...Gateway Observations for Savannah International...

CITY           SKY/WX    TMP DP  RH WIND       PRES   REMARKS
Savannah Arpt  PTCLDY    41  41 100 CALM      30.14R
Atlanta        PTCLDY    43  37  79 N3        30.13S
Charlotte      CLEAR     38  30  73 N5        30.18R WCI  34
Dallas DFW     CLOUDY    71  67  87 S14       29.91F
Houston Bush   MOCLDY    69  68  96 SE5       30.02S
Wash National  CLEAR     43  29  57 NW8       30.17S
Wash Dulles    PTCLDY    37  29  72 W6        30.17S WCI  32
Baltimore      PTCLDY    36  29  75 W6        30.15R WCI  31
Philadelphia   PTCLDY    44  27  51 W10       30.09R
Newark         MOCLDY    41  24  51 NW22G33   30.03R
Laguardia      PTCLDY    43  28  55 NW26G36   30.00R
J F K          PTCLDY    40  25  55 NW21G31   30.00R WCI  30
Boston         MOCLDY    40  29  64 NW21G31   29.78R WCI  30
Pittsburg      CLOUDY    37  28  70 NW6       30.22R WCI  32
Akron          CLOUDY    36  27  69 N5        30.23R WCI  32
Cleveland      CLOUDY    38  28  67 NW5       30.27S WCI  34
Cincinnati     CLOUDY    35  30  82 SE12      30.23F WCI  27
Columbus       CLOUDY    37  31  79 SE7       30.25F WCI  31
Detroit        CLOUDY    35  29  78 CALM      30.28R
Chicago O`Hare CLOUDY    36  30  79 S13       30.14F WCI  27
Minneapolis    CLOUDY    36  30  79 SE18G29   29.76F WCI  26
Indianapolis   MOCLDY    34  29  82 SE13      30.21S WCI  25
Toronto Canada CLOUDY    28  19  69 N12       30.24R WCI  18

$$




USA.gov is the U.S. government's official web portal to all federal, state and local government web resources and services.